Pittsfield, MA

7:13 PM EDT on August 25, 2019 (GMT -0400)
Pittsfield Municipal

Weather History for KPSF - June, 2019

Change the Weather History Date:

Tuesday, June 4, 2019

  Actual Average Record
Temperature  
Mean Temperature 52 °F 60 °F  
Max Temperature 64 °F 72 °F 92 °F (1930)
Min Temperature 39 °F 50 °F 35 °F (1947)
Degree Days  
Heating Degree Days 13 6  
Month to date heating degree days 30 24  
Since 1 June heating degree days 30 24  
Since 1 July heating degree days 6935 7384  
Cooling Degree Days 0 1  
Month to date cooling degree days 0 4  
Year to date cooling degree days 6 17  
Since 1 June cooling degree days 0 4  
Growing Degree Days 2 (Base 50)    
Moisture  
Dew Point 39 °F    
Average Humidity 61    
Maximum Humidity 89    
Minimum Humidity 36    
Precipitation  
Precipitation 0.01 in 0.19 in 0.65 in (2018)
Month to date precipitation 0.48 0.71  
Year to date precipitation 18.20 17.75  
Sea Level Pressure  
Sea Level Pressure 29.99 in    
Wind  
Wind Speed 5 mph ()    
Max Wind Speed 18 mph    
Max Gust Speed 24 mph    
Visibility 10.0 miles    
Events Rain    
T = Trace of Precipitation, MM = Missing Value Source: Averaged Metar Reports

Daily Weather History Graph

Daily Weather History Graph

Search for Another Location

Airport or City:

Astronomy

Jun. 04, 2019 Rise Set
Actual Time 5:17 AM EDT 8:25 PM EDT
Civil Twilight 4:43 AM EDT 9:00 PM EDT
Nautical Twilight 3:59 AM EDT 9:43 PM EDT
Astronomical Twilight 3:07 AM EDT 10:36 PM EDT
Moon 6:24 AM EDT (6/4) 9:51 PM EDT (6/4)
Length of Visible Light 16h 16m
Length of Day
15h 08m
New Moon, 2% of the Moon is Illuminated
Jun 4
New Moon
Jun 10
First Quarter
Jun 17
Full
Jun 25
Last Quarter
Jul 2
New

Hourly Weather History & Observations

Time (EDT) Temp. Windchill Dew Point Humidity Pressure Visibility Wind Dir Wind Speed Gust Speed Precip Events Conditions
12:54 AM 42.1 °F - 36.0 °F 79% 29.99 in 10.0 mi Calm Calm - N/A   Clear
1:54 AM 46.0 °F 41.9 °F 34.0 °F 63% 29.98 in 10.0 mi West 8.1 mph - N/A   Clear
2:54 AM 46.9 °F - 34.0 °F 61% 29.98 in 10.0 mi WSW 8.1 mph - N/A   Clear
3:54 AM 43.0 °F 41.3 °F 35.1 °F 74% 30.00 in 10.0 mi WSW 3.5 mph - N/A   Clear
4:54 AM 41.0 °F - 35.1 °F 79% 30.01 in 10.0 mi Calm Calm - N/A   Clear
5:54 AM 39.9 °F 36.7 °F 35.1 °F 83% 30.04 in 10.0 mi West 4.6 mph - N/A   Clear
6:54 AM 46.9 °F - 36.0 °F 66% 30.05 in 10.0 mi WSW 5.8 mph - N/A   Clear
7:54 AM 50.0 °F - 37.0 °F 61% 30.05 in 10.0 mi Variable 5.8 mph - N/A   Clear
8:54 AM 53.1 °F - 37.9 °F 57% 30.06 in 10.0 mi NNW 9.2 mph - N/A   Clear
9:54 AM 55.9 °F - 39.9 °F 55% 30.06 in 10.0 mi WSW 10.4 mph - N/A   Clear
10:54 AM 57.9 °F - 39.0 °F 49% 30.05 in 10.0 mi West 5.8 mph - N/A   Clear
11:54 AM 59.0 °F - 35.1 °F 41% 30.04 in 10.0 mi West 8.1 mph - N/A   Mostly Cloudy
12:54 PM 61.0 °F - 36.0 °F 39% 30.03 in 10.0 mi West 6.9 mph 19.6 mph N/A   Mostly Cloudy
1:54 PM 63.0 °F - 39.0 °F 41% 29.99 in 10.0 mi West 10.4 mph - N/A   Mostly Cloudy
2:54 PM 64.0 °F - 37.9 °F 38% 29.97 in 10.0 mi West 11.5 mph 19.6 mph N/A   Partly Cloudy
3:54 PM 64.9 °F - 37.0 °F 36% 29.96 in 10.0 mi WSW 10.4 mph 20.7 mph N/A   Partly Cloudy
4:54 PM 63.0 °F - 37.0 °F 38% 29.96 in 10.0 mi West 10.4 mph 20.7 mph N/A   Scattered Clouds
5:54 PM 62.1 °F - 35.1 °F 37% 29.96 in 10.0 mi West 11.5 mph 18.4 mph N/A   Overcast
6:54 PM 55.9 °F - 43.0 °F 62% 29.98 in 10.0 mi NNW 5.8 mph - 0.00 in Rain Light Rain
7:54 PM 53.1 °F - 46.0 °F 77% 29.97 in 10.0 mi Calm Calm - 0.00 in Rain Light Rain
8:54 PM 52.0 °F - 46.9 °F 83% 29.94 in 10.0 mi Calm Calm - 0.01 in   Overcast
9:54 PM 52.0 °F - 48.0 °F 86% 29.94 in 10.0 mi Calm Calm - N/A   Overcast
10:54 PM 52.0 °F - 46.9 °F 83% 29.92 in 10.0 mi Calm Calm - N/A   Overcast
11:54 PM 52.0 °F - 48.0 °F 86% 29.90 in 10.0 mi Calm Calm - N/A   Overcast